Flag for Germany Weather past 2 weeks in Aalen, Baden-Württemberg, Germany

Now
74 °F

Passing clouds.


Feels Like: 77 °F
Forecast: 51 / 76 °F
Wind: 2 mph from Northeast

Location: Stoetten

Current Time: Jul 24, 2014 at 4:41:34 PM

Latest Report: Jul 24, 2014 at 4:00 PM


Visibility: 47 mi

Pressure: 29.84 "Hg

Humidity: 41%

Dew point: 49 °F

Location of AalenLocation

Historic Weather in Aalen — Graph

°F

Aalen temperature yesterday

Maximum temperature yesterday: 74 °F (at 4:00 PM)
Minimum temperature yesterday: 58 °F (at 4:00 AM)
Average temperature yesterday: 66 °F

Past Weeks' High & Low Weather Summary

 TemperatureHumidityPressure
High85 °F (Jul 19, 5:00 PM)100% (Jul 10, 7:00 PM)30.19 "Hg (Jul 10, 7:00 PM)
Low47 °F (Jul 9, 11:00 PM)31% (Jul 18, 4:00 PM)29.78 "Hg (Jul 13, 5:00 PM)
Average63 °F75%29.94 "Hg
* Reported Jul 9 3:00 PM — Jul 24 3:00 PM, Aalen, Weather by CustomWeather, © 2014

Note: Actual official high and low records may vary slightly from our data, if they occured in-between our weather recording intervals... More about our weather records

Advertising

Aalen weather history for previous 24 hours

 ConditionsComfort  
Time TempWeatherWind HumidityBarometerVisibility
3:00 PM
Jul 24
73 °FScattered clouds.2 mph44%29.84 "Hg47 mi
2:00 PM70 °FPartly sunny.3 mph49%29.86 "Hg47 mi
1:00 PM70 °FScattered clouds.5 mph47%29.86 "Hg47 mi
12:00 PM68 °FScattered clouds.6 mph51%29.87 "Hg40 mi
11:00 AM70 °FPassing clouds.3 mph53%29.85 "Hg37 mi
10:00 AM69 °FPassing clouds.3 mph54%29.85 "Hg34 mi
9:00 AM67 °FPassing clouds.5 mph59%29.86 "Hg31 mi
8:00 AM63 °FPassing clouds.5 mph63%29.88 "Hg31 mi
7:00 AM61 °FPassing clouds.3 mph65%29.88 "Hg28 mi
6:00 AM59 °FPassing clouds.3 mph67%29.90 "Hg25 mi
5:00 AM59 °FClear.5 mph69%29.90 "Hg22 mi
4:00 AM60 °FClear.5 mph69%29.90 "Hg22 mi
3:00 AM61 °FClear.6 mph69%29.91 "Hg22 mi
2:00 AM61 °FClear.6 mph71%29.92 "Hg22 mi
1:00 AM63 °FClear.6 mph67%29.93 "Hg25 mi
12:00 AM63 °FClear.6 mph65%29.94 "Hg22 mi
11:00 PM
Jul 23
63 °FClear.5 mph64%29.94 "Hg25 mi
10:00 PM64 °FClear.5 mph62%29.94 "Hg28 mi
9:00 PM67 °FScattered clouds.6 mph58%29.92 "Hg40 mi
8:00 PM70 °FScattered clouds.7 mph55%29.90 "Hg40 mi
7:00 PM73 °FPassing clouds.6 mph47%29.88 "Hg40 mi
6:00 PM74 °FScattered clouds.5 mph48%29.88 "Hg40 mi
5:00 PM74 °FScattered clouds.7 mph44%29.90 "Hg37 mi
4:00 PM74 °FScattered clouds.7 mph47%29.90 "Hg37 mi
Weather by CustomWeather, © 2014

See weather overviewHow to use our weather pages